Back to catalog

SL-19 DEB

AliveSSO
NORAD 36038·DEBRIS·🇷🇺 Russia

Launched Nov 2, 2009 from Plesetsk Cosmodrome

Loading…

Next Passes (next 24 hours)

TLE

FreshSource: Space-Track

Epoch: Sep 14, 2026, 11:03 UTC

1 36038U 09059C   26257.46076238  .00000493  00000-0  11146-3 0  9993
2 36038  98.1855  79.9644 0008401 290.0808  98.3294 14.60413546896098

Track SL-19 DEB in real time with AllMySat

Download on the App Store